| time (UTC) | temp F | wind direction | speed MPH | gust MPH | rain 1hr in | rain 24hr in | rain mn in | humidity % | barometer mb |
| 20260903003051 | 62 | 189 | 8.0 | 14.0 | 0.00 | 0.00 | 0.00 | 68 | 1010.5 |
| 20260903000135 | 62 | 200 | 10.0 | 17.0 | 0.00 | 0.00 | 0.00 | 67 | 1010.6 |
| 20260902233036 | 64 | 203 | 10.0 | 16.0 | 0.00 | 0.00 | 0.00 | 63 | 1010.5 |
| 20260902231641 | 64 | 203 | 10.0 | 15.0 | 0.00 | 0.00 | 0.00 | 64 | 1010.7 |
| 20260902224529 | 63 | 198 | 7.0 | 13.0 | 0.00 | 0.00 | 0.00 | 63 | 1010.5 |
| 20260902223030 | 64 | 197 | 5.0 | 10.0 | 0.00 | 0.00 | 0.00 | 64 | 1010.4 |
| 20260902221532 | 63 | 197 | 6.0 | 11.0 | 0.00 | 0.00 | 0.00 | 64 | 1010.5 |
| 20260902220041 | 62 | 178 | 5.0 | 10.0 | 0.00 | 0.00 | 0.00 | 66 | 1010.4 |
| 20260902214533 | 62 | 188 | 4.0 | 7.0 | 0.00 | 0.00 | 0.00 | 68 | 1010.6 |
| 20260902213032 | 61 | 196 | 5.0 | 9.0 | 0.00 | 0.00 | 0.00 | 69 | 1010.7 |
| 20260902211610 | 62 | 199 | 9.0 | 15.0 | 0.00 | 0.00 | 0.00 | 64 | 1011.0 |
| 20260902204529 | 63 | 183 | 9.0 | 15.0 | 0.00 | 0.00 | 0.00 | 60 | 1010.8 |
| 20260902203035 | 63 | 202 | 10.0 | 18.0 | 0.00 | 0.00 | 0.00 | 62 | 1010.7 |
| 20260902201534 | 62 | 199 | 10.0 | 17.0 | 0.00 | 0.00 | 0.00 | 66 | 1010.8 |
| 20260902200030 | 63 | 201 | 11.0 | 17.0 | 0.00 | 0.00 | 0.00 | 62 | 1010.9 |
| 20260902194530 | 64 | 206 | 14.0 | 24.0 | 0.00 | 0.00 | 0.00 | 57 | 1010.7 |
| 20260902193036 | 66 | 205 | 18.0 | 26.0 | 0.00 | 0.00 | 0.00 | 54 | 1010.5 |
| 20260902191534 | 68 | 203 | 13.0 | 23.0 | 0.00 | 0.00 | 0.00 | 51 | 1010.0 |
| 20260902190029 | 68 | 266 | 3.0 | 16.0 | 0.00 | 0.00 | 0.00 | 57 | 1009.8 |
| 20260902184530 | 68 | 97 | 1.0 | 5.0 | 0.00 | 0.00 | 0.00 | 59 | 1009.8 |
| 20260902183037 | 68 | 36 | 2.0 | 12.0 | 0.00 | 0.00 | 0.00 | 60 | 1010.1 |
| 20260902181531 | 67 | 70 | 3.0 | 11.0 | 0.00 | 0.00 | 0.00 | 62 | 1010.2 |
| 20260902180033 | 66 | 316 | 2.0 | 8.0 | 0.00 | 0.00 | 0.00 | 65 | 1010.4 |
| 20260902174529 | 65 | 307 | 1.0 | 4.0 | 0.00 | 0.00 | 0.00 | 67 | 1010.6 |
| 20260902173034 | 62 | 54 | 2.0 | 7.0 | 0.00 | 0.00 | 0.00 | 74 | 1011.1 |
| 20260902170035 | 61 | 19 | 2.0 | 7.0 | 0.00 | 0.00 | 0.00 | 77 | 1011.2 |
| 20260902164642 | 60 | 43 | 1.0 | 6.0 | 0.00 | 0.00 | 0.00 | 80 | 1011.4 |
| 20260902163141 | 58 | 15 | 2.0 | 5.0 | 0.00 | 0.00 | 0.00 | 85 | 1011.6 |
| 20260902160035 | 56 | 202 | 0.0 | 1.0 | 0.00 | 0.00 | 0.00 | 89 | 1012.0 |
| 20260902154529 | 54 | 202 | 0.0 | 1.0 | 0.00 | 0.00 | 0.00 | 91 | 1012.1 |
| 20260902153030 | 52 | 175 | 2.0 | 4.0 | 0.00 | 0.00 | 0.00 | 92 | 1012.2 |
| 20260902151642 | 50 | 202 | 1.0 | 3.0 | 0.00 | 0.00 | 0.00 | 93 | 1012.3 |
| 20260902150035 | 48 | 184 | 1.0 | 4.0 | 0.00 | 0.00 | 0.00 | 93 | 1012.3 |
| 20260902144536 | 47 | 168 | 0.0 | 3.0 | 0.00 | 0.00 | 0.00 | 93 | 1012.4 |
| 20260902143037 | 45 | 268 | 2.0 | 4.0 | 0.00 | 0.00 | 0.00 | 93 | 1012.4 |
| 20260902141532 | 44 | 260 | 1.0 | 4.0 | 0.00 | 0.00 | 0.00 | 92 | 1012.4 |
| 20260902140036 | 44 | 211 | 0.0 | 3.0 | 0.00 | 0.00 | 0.00 | 92 | 1012.3 |
| 20260902134531 | 43 | 202 | 0.0 | 3.0 | 0.00 | 0.00 | 0.00 | 92 | 1012.3 |
| 20260902133144 | 43 | 192 | 1.0 | 5.0 | 0.00 | 0.00 | 0.00 | 91 | 1012.4 |
| 20260902130033 | 45 | 213 | 1.0 | 4.0 | 0.00 | 0.00 | 0.00 | 91 | 1012.7 |
| 20260902124645 | 44 | 166 | 1.0 | 3.0 | 0.00 | 0.00 | 0.00 | 91 | 1012.7 |
| 20260902123034 | 45 | 267 | 1.0 | 3.0 | 0.00 | 0.00 | 0.00 | 91 | 1012.8 |
| 20260902120035 | 46 | 206 | 0.0 | 2.0 | 0.00 | 0.00 | 0.00 | 91 | 1012.7 |
| 20260902114531 | 47 | 209 | 1.0 | 4.0 | 0.00 | 0.00 | 0.00 | 90 | 1012.8 |
| 20260902111641 | 47 | 257 | 1.0 | 6.0 | 0.00 | 0.00 | 0.00 | 90 | 1012.8 |
| 20260902110030 | 47 | 201 | 0.0 | 2.0 | 0.00 | 0.00 | 0.00 | 89 | 1012.9 |
| 20260902104531 | 48 | 183 | 0.0 | 3.0 | 0.00 | 0.00 | 0.00 | 89 | 1012.8 |
| 20260902103034 | 49 | 186 | 0.0 | 2.0 | 0.00 | 0.00 | 0.00 | 88 | 1012.6 |
| 20260902101535 | 49 | 254 | 0.0 | 3.0 | 0.00 | 0.00 | 0.00 | 88 | 1012.8 |
| 20260902094532 | 50 | 175 | 1.0 | 4.0 | 0.00 | 0.00 | 0.00 | 87 | 1013.0 |
| 20260902093031 | 50 | 165 | 2.0 | 5.0 | 0.00 | 0.00 | 0.00 | 87 | 1013.0 |
| 20260902084531 | 51 | 216 | 1.0 | 4.0 | 0.00 | 0.00 | 0.00 | 85 | 1013.0 |
| 20260902083043 | 51 | 273 | 0.0 | 3.0 | 0.00 | 0.00 | 0.00 | 85 | 1013.0 |
| 20260902081531 | 52 | 309 | 1.0 | 4.0 | 0.00 | 0.00 | 0.00 | 83 | 1013.0 |
| 20260902080032 | 52 | 300 | 0.0 | 2.0 | 0.00 | 0.00 | 0.00 | 82 | 1013.1 |
| 20260902074534 | 53 | 287 | 1.0 | 4.0 | 0.00 | 0.00 | 0.00 | 81 | 1013.2 |
| 20260902073036 | 55 | 277 | 1.0 | 5.0 | 0.00 | 0.00 | 0.00 | 81 | 1013.3 |
| 20260902071536 | 55 | 244 | 2.0 | 8.0 | 0.00 | 0.00 | 0.00 | 81 | 1013.3 |
| 20260902070143 | 55 | 328 | 2.0 | 8.0 | 0.00 | 0.00 | 0.00 | 80 | 1013.3 |
| 20260902064537 | 56 | 275 | 0.0 | 3.0 | 0.00 | 0.00 | 0.00 | 78 | 1013.5 |
| 20260902063035 | 56 | 342 | 2.0 | 8.0 | 0.00 | 0.00 | 0.00 | 77 | 1013.1 |
| 20260902061541 | 57 | 208 | 1.0 | 5.0 | 0.00 | 0.00 | 0.00 | 76 | 1013.5 |
| 20260902054530 | 58 | 324 | 2.0 | 6.0 | 0.00 | 0.00 | 0.00 | 75 | 1013.6 |
| 20260902051535 | 58 | 322 | 3.0 | 8.0 | 0.00 | 0.00 | 0.00 | 75 | 1013.2 |
| 20260902050035 | 57 | 317 | 4.0 | 9.0 | 0.00 | 0.00 | 0.00 | 74 | 1012.9 |
| 20260902041531 | 61 | 323 | 3.0 | 11.0 | 0.00 | 0.00 | 0.00 | 66 | 1012.5 |
| 20260902040034 | 62 | 292 | 5.0 | 16.0 | 0.00 | 0.00 | 0.00 | 63 | 1012.3 |
| 20260902034642 | 62 | 303 | 6.0 | 12.0 | 0.00 | 0.00 | 0.00 | 62 | 1012.1 |
| 20260902031531 | 63 | 290 | 8.0 | 19.0 | 0.00 | 0.00 | 0.00 | 59 | 1011.5 |
| 20260902030030 | 63 | 287 | 8.0 | 18.0 | 0.00 | 0.00 | 0.00 | 59 | 1011.5 |
| 20260902023035 | 64 | 294 | 8.0 | 23.0 | 0.00 | 0.00 | 0.00 | 58 | 1011.6 |
| 20260902021538 | 64 | 299 | 6.0 | 15.0 | 0.00 | 0.00 | 0.00 | 57 | 1011.4 |
| 20260902020034 | 64 | 294 | 7.0 | 16.0 | 0.00 | 0.00 | 0.00 | 58 | 1011.2 |
| 20260902013037 | 66 | 326 | 4.0 | 11.0 | 0.00 | 0.00 | 0.00 | 58 | 1011.1 |
| 20260902011530 | 66 | 307 | 6.0 | 15.0 | 0.00 | 0.00 | 0.00 | 58 | 1010.8 |
| 20260902010035 | 67 | 300 | 7.0 | 16.0 | 0.00 | 0.00 | 0.00 | 57 | 1010.4 |
| 20260902004610 | 68 | 297 | 8.0 | 25.0 | 0.00 | 0.00 | 0.00 | 56 | 1010.2 |